#datint,netname,site,siteID,timestamp,IntT,BattV,AirT2,AirT,AirT_Avg,AirT_Max,AirT_Min,RH_Avg,RH_Max,RH_Min,EA_Avg,Td_Avg,Td_Max,Td_Min,WindS_Smp,WindS_Avg,WindD_Avg,WindD_SD,WindS_Max,ETo,ETr,SoilT4,SoilT8,SoilVWC8,SolarW_Avg,wetstate_Avg,wetT_Avg,Precip_accum,Precip_WPG,Precip_TB
15min,AgWx,beryljct,423,14FEB2018:00:00:00,35.3,12.87,34.7,34.8,35.0,35.5,34.6,84,84,83,0.572,30.7,31.0,30.2,0.022,1.4,121,17,2.4,-0.00006,-0.00008,39.4,41.4,21,0,0,35.9,12.07,0.00,0.00
15min,AgWx,beryljct,423,14FEB2018:00:15:00,35.4,12.86,34.6,34.9,34.9,35.1,34.7,84,84,84,0.573,30.5,30.7,30.3,0.614,0.1,112,6.1,0.7,-0.00012,-0.00019,39.4,41.3,21,0,0,35.5,12.08,0.00,0.00
15min,AgWx,beryljct,423,14FEB2018:00:30:00,35.4,12.86,34.5,34.7,34.7,34.9,34.6,84,84,84,0.571,30.3,30.5,30.2,0,0.8,229,40,2.1,-0.00008,-0.00012,39.3,41.3,21,0,0,35.7,12.08,0.00,0.00
15min,AgWx,beryljct,423,14FEB2018:00:45:00,35.3,12.85,34.4,34.5,34.7,35.0,34.5,84,84,84,0.567,30.3,30.6,30.0,1.14,0.6,314,44,2.8,-0.00009,-0.00013,39.2,32.0,0,0,0,35.6,12.08,0.00,0.00
15min,AgWx,beryljct,423,14FEB2018:01:00:00,35.2,12.84,33.7,34.0,34.4,34.7,33.9,84,84,84,0.554,30.1,30.4,29.5,2.126,1.3,339,16,3.0,-0.00006,-0.00008,39.1,41.2,21,0,0,35.4,12.07,0.00,0.00
15min,AgWx,beryljct,423,14FEB2018:01:15:00,35.1,12.84,34.1,34.1,34.1,34.3,33.8,83,84,83,0.553,29.6,29.7,29.4,1.14,2.2,304,8.5,3.2,-0.00003,-0.00004,39.0,41.2,21,0,0,35.7,12.08,0.00,0.00
15min,AgWx,beryljct,423,14FEB2018:01:30:00,35.0,12.83,33.8,33.9,34.2,34.4,33.9,83,83,83,0.549,29.7,29.9,29.4,1.271,1.1,326,50,1.9,-0.00007,-0.00010,38.9,41.1,21,0,0,35.7,12.08,0.00,0.00
15min,AgWx,beryljct,423,14FEB2018:01:45:00,34.9,12.83,34.5,34.7,34.4,34.9,33.9,83,84,83,0.570,29.9,30.4,29.4,3.661,2.3,0.7,15,3.7,-0.00004,-0.00004,38.9,41.1,21,0,0,35.4,12.07,0.00,0.00
15min,AgWx,beryljct,423,14FEB2018:02:00:00,34.7,12.82,33.6,33.6,34.0,34.7,33.6,84,84,83,0.544,29.6,30.3,29.2,2.083,2.4,352,10,3.7,-0.00003,-0.00003,38.8,41.1,21,0,0,35.4,12.07,0.00,0.00
15min,AgWx,beryljct,423,14FEB2018:02:15:00,34.6,12.83,33.1,33.4,33.6,34.0,33.3,83,84,83,0.539,29.1,29.5,28.8,3.201,2.8,335,13,3.7,-0.00002,-0.00002,38.8,41.0,21,0,0,35.8,12.07,0.00,0.00
15min,AgWx,beryljct,423,14FEB2018:02:30:00,34.5,12.83,33.8,33.8,33.5,33.9,33.2,83,83,83,0.546,28.9,29.3,28.6,3.091,3.5,312,7.9,4.2,-0.00001,0.00000,38.6,41.0,21,0,0,35.3,12.07,0.00,0.00
15min,AgWx,beryljct,423,14FEB2018:02:45:00,34.6,12.83,34.4,34.6,34.3,34.6,33.7,83,84,83,0.565,29.7,30.1,29.1,2.981,2.8,317,16,3.7,-0.00002,-0.00002,38.5,41.0,21,0,0,35.6,12.08,0.00,0.00
15min,AgWx,beryljct,423,14FEB2018:03:00:00,34.7,12.82,34.3,34.6,34.5,34.7,34.3,84,84,83,0.567,30.1,30.2,29.8,0,0.8,319,4.9,3.0,-0.00008,-0.00012,38.5,40.9,21,0,0,35.5,12.08,0.00,0.00
15min,AgWx,beryljct,423,14FEB2018:03:15:00,34.7,12.81,34.1,34.5,34.6,34.8,34.4,84,84,84,0.565,30.1,30.4,29.9,0.57,0.2,329,0.6,0.7,-0.00011,-0.00018,38.3,40.9,21,0,0,35.3,12.07,0.00,0.00
15min,AgWx,beryljct,423,14FEB2018:03:30:00,34.7,12.81,33.7,33.9,34.2,34.6,33.8,83,84,83,0.549,29.7,30.1,29.3,0,0.3,238,48,1.7,-0.00011,-0.00016,38.4,40.8,21,0,0,35.7,12.08,0.00,0.00
15min,AgWx,beryljct,423,14FEB2018:03:45:00,34.6,12.8,33.7,33.8,33.9,34.2,33.7,83,84,83,0.548,29.4,29.7,29.1,1.732,0.9,178,4.9,1.9,-0.00008,-0.00011,38.3,40.8,21,0,0,35.6,12.07,0.00,0.00
15min,AgWx,beryljct,423,14FEB2018:04:00:00,34.6,12.8,33.5,33.8,33.8,34.0,33.6,83,83,83,0.547,29.3,29.5,29.1,0,0.3,190,1.0,1.6,-0.00011,-0.00016,38.2,40.8,21,0,0,35.6,12.08,0.00,0.00
15min,AgWx,beryljct,423,14FEB2018:04:15:00,34.4,12.67,33.8,34.0,33.9,34.1,33.6,83,84,83,0.553,29.3,29.6,29.0,2.543,1.8,169,13,3.4,-0.00005,-0.00006,38.2,40.7,21,0,0,35.7,12.07,0.00,0.00
15min,AgWx,beryljct,423,14FEB2018:04:30:00,34.3,12.79,33.2,33.4,33.6,34.1,33.3,83,84,83,0.537,29.1,29.6,28.8,3.179,3.0,154,23,5.0,-0.00002,-0.00001,38.1,40.7,21,0,0,35.3,12.08,0.00,0.00
15min,AgWx,beryljct,423,14FEB2018:04:45:00,34.0,12.78,32.5,32.7,33.1,33.4,32.7,83,83,83,0.521,28.5,28.9,28.1,2.346,2.7,145,20,4.2,-0.00002,-0.00002,38.0,40.6,21,0,0,35.5,12.07,0.00,0.00
15min,AgWx,beryljct,423,14FEB2018:05:00:00,33.9,12.77,32.9,33.1,32.9,33.3,32.4,83,83,83,0.529,28.2,28.6,27.8,0.395,2.1,180,8.9,3.6,-0.00004,-0.00004,37.9,40.6,21,0,0,35.6,12.07,0.00,0.00
15min,AgWx,beryljct,423,14FEB2018:05:15:00,33.5,12.76,32.5,32.9,33.0,33.2,32.5,83,83,83,0.523,28.3,28.6,27.9,2.061,1.3,175,25,2.9,-0.00006,-0.00008,37.8,40.6,21,0,0,35.5,12.07,0.00,0.00
15min,AgWx,beryljct,423,14FEB2018:05:30:00,33.0,12.76,31.5,31.7,32.5,33.0,31.5,83,83,83,0.500,27.8,28.3,26.9,1.008,2.2,180,18,3.3,-0.00003,-0.00004,37.7,40.6,21,0,0,35.5,12.07,0.00,0.00
15min,AgWx,beryljct,423,14FEB2018:05:45:00,32.5,12.74,30.4,30.7,31.1,31.8,30.6,83,83,83,0.483,26.5,27.2,26.1,0,0.8,297,36,2.1,-0.00008,-0.00011,37.6,40.5,21,0,0,35.7,12.07,0.00,0.00
15min,AgWx,beryljct,423,14FEB2018:06:00:00,32.2,12.75,31.1,31.5,31.1,31.6,30.4,83,83,83,0.495,26.5,27.0,25.9,0,0.0,317,0.1,0.4,-0.00011,-0.00018,37.4,40.4,21,0,0,35.7,12.07,0.00,0.00
15min,AgWx,beryljct,423,14FEB2018:06:15:00,32.3,12.74,31.5,31.7,31.5,31.8,31.1,83,83,83,0.500,26.9,27.2,26.5,2.74,1.6,316,3.9,2.7,-0.00005,-0.00006,37.4,40.5,21,0,12,35.5,12.07,0.00,0.00
15min,AgWx,beryljct,423,14FEB2018:06:30:00,32.6,12.74,32.5,32.7,32.4,32.9,31.6,83,83,82,0.518,27.7,28.2,26.9,0,1.7,353,39,3.8,-0.00005,-0.00005,37.2,40.4,21,0,70,35.6,12.08,0.01,0.00
15min,AgWx,beryljct,423,14FEB2018:06:45:00,32.8,12.73,32.3,32.6,32.8,33.0,32.5,83,83,82,0.516,28.1,28.3,27.8,2.587,1.5,84,17,3.2,0.00005,0.00008,37.2,40.3,21,0,0,35.2,12.08,0.00,0.00
15min,AgWx,beryljct,423,14FEB2018:07:00:00,32.9,12.72,32.0,32.4,32.5,32.8,32.3,83,83,82,0.513,27.8,28.1,27.5,0,0.4,106,1.5,2.5,0.00002,0.00003,37.1,40.3,21,0,0,35.6,12.08,0.00,0.00
15min,AgWx,beryljct,423,14FEB2018:07:15:00,32.9,12.72,32.0,32.4,32.4,32.6,32.1,83,83,82,0.511,27.6,27.9,27.3,3.573,1.8,133,25,3.6,0.00006,0.00010,37.1,40.2,21,0,0,35.9,12.08,0.00,0.00
15min,AgWx,beryljct,423,14FEB2018:07:30:00,32.9,12.72,31.8,31.9,32.2,32.4,31.9,82,83,82,0.500,27.4,27.7,27.1,0.614,3.1,145,15,4.7,0.00010,0.00016,37.0,40.2,21,1,0,35.5,12.08,0.00,0.00
15min,AgWx,beryljct,423,14FEB2018:07:45:00,32.8,12.72,31.8,32.1,32.1,32.3,31.8,82,83,82,0.504,27.3,27.5,27.0,0.57,0.2,162,0.2,0.9,0.00004,0.00005,37.0,40.2,21,7,0,35.8,12.08,0.00,0.00
15min,AgWx,beryljct,423,14FEB2018:08:15:00,32.9,12.76,32.7,33.2,33.0,33.2,32.7,82,82,82,0.526,28.1,28.3,27.9,0.702,0.1,189,0.0,0.7,0.00007,0.00008,36.9,40.1,21,49,0,36.1,12.08,0.00,0.00
15min,AgWx,beryljct,423,14FEB2018:08:30:00,33.1,12.79,33.4,33.7,33.3,33.7,32.9,82,82,82,0.536,28.4,28.8,28.1,0,0.0,188,0.0,0.7,0.00024,0.00025,36.8,40.1,21,50,0,37.0,12.08,0.00,0.00
15min,AgWx,beryljct,423,14FEB2018:08:45:00,33.6,12.82,34.6,34.9,34.4,35.1,33.4,82,82,82,0.562,29.4,30.2,28.5,4.428,2.7,302,12,5.8,0.00035,0.00042,36.8,40.0,21,63,0,37.6,12.08,0.00,0.01
15min,AgWx,beryljct,423,14FEB2018:09:00:00,34.3,12.86,35.0,35.1,34.9,35.1,34.6,82,82,82,0.569,30.0,30.3,29.7,2.74,3.1,323,12,4.2,0.00022,0.00030,36.8,39.9,21,86,0,39.0,12.08,0.00,0.00
15min,AgWx,beryljct,423,14FEB2018:09:15:00,35.1,12.98,35.7,35.9,35.5,35.9,35.0,83,83,82,0.592,30.7,31.2,30.2,2.477,2.7,324,15,3.9,0.00056,0.00065,36.8,39.9,21,115,0,40.2,12.08,0.00,0.00
15min,AgWx,beryljct,423,14FEB2018:09:30:00,36.4,13.27,36.9,36.9,36.4,37.0,35.8,83,83,83,0.620,31.8,32.4,31.1,0.921,1.3,57,43,2.5,0.00078,0.00086,36.9,39.9,21,178,0,45.5,12.08,0.00,0.00
15min,AgWx,beryljct,423,14FEB2018:09:45:00,37.7,13.3,38.1,38.3,37.7,38.3,36.8,83,84,83,0.656,33.1,33.8,32.2,2.806,0.5,130,20,2.8,0.00074,0.00081,37.0,39.8,21,156,0,49.1,12.09,0.00,0.00
15min,AgWx,beryljct,423,14FEB2018:10:00:00,38.6,13.23,38.6,38.7,38.3,38.7,37.9,83,84,83,0.659,33.6,33.9,33.3,3.091,2.7,184,28,3.7,0.00053,0.00062,37.2,32.0,0,99,60,43.3,12.09,0.00,0.00
15min,AgWx,beryljct,423,14FEB2018:10:15:00,39.3,13.16,41.4,41.8,40.9,42.0,38.6,83,83,82,0.749,36.1,37.2,33.8,7.147,6.2,198,20,8.6,0.00050,0.00066,37.4,39.8,21,78,53,42.1,12.09,0.00,0.00
15min,AgWx,beryljct,423,14FEB2018:10:30:00,40.1,13.15,41.7,42.0,41.9,42.2,41.6,83,84,83,0.752,37.2,37.4,36.9,9.6,6.5,187,18,10.4,0.00058,0.00074,37.7,39.7,21,93,0,44.6,12.09,0.00,0.00
15min,AgWx,beryljct,423,14FEB2018:10:45:00,40.8,13.05,41.3,41.4,41.8,42.2,41.4,83,84,83,0.737,37.1,37.5,36.7,6.489,7.2,173,13,11.4,0.00045,0.00062,37.9,39.7,21,59,0,44.0,12.09,0.00,0.00
15min,AgWx,beryljct,423,14FEB2018:11:00:00,41.3,13.12,42.4,42.8,41.9,42.8,41.5,83,83,83,0.775,37.2,38.0,36.7,8.53,7.0,199,23,10.5,0.00066,0.00084,38.1,39.6,21,113,0,45.0,12.09,0.00,0.00
15min,AgWx,beryljct,423,14FEB2018:11:15:00,42.5,13.28,42.7,42.8,42.7,43.1,42.4,83,83,83,0.777,38.0,38.3,37.7,8.94,8.1,182,19,10.2,0.00094,0.00115,38.2,39.7,21,184,0,47.9,12.09,0.00,0.00
15min,AgWx,beryljct,423,14FEB2018:11:30:00,43.5,13.43,43.0,43.1,43.2,43.8,42.6,82,83,80,0.758,38.2,39.0,37.3,6.314,7.7,180,18,11.3,0.00098,0.00120,38.5,39.6,21,188,0,49.2,12.09,0.00,0.00
15min,AgWx,beryljct,423,14FEB2018:11:45:00,44.2,13.41,43.6,43.8,43.4,43.8,43.0,80,82,76,0.743,37.7,38.2,36.8,11.18,7.9,179,18,12.8,0.00075,0.00099,38.6,39.6,21,120,0,47.6,12.09,0.00,0.00
15min,AgWx,beryljct,423,14FEB2018:12:00:00,44.7,13.48,43.2,43.4,43.8,44.3,43.3,78,80,77,0.769,37.5,38.6,36.8,10.39,9.2,189,19,12.3,0.00097,0.00126,38.8,39.6,21,164,0,48.0,12.09,0.00,0.00
15min,AgWx,beryljct,423,14FEB2018:12:15:00,44.8,13.54,42.8,43.0,42.9,43.4,42.5,81,83,78,0.782,37.3,38.2,36.6,8.66,10.5,195,23,13.7,0.00103,0.00132,39.0,39.6,21,201,0,47.1,12.09,0.00,0.00
15min,AgWx,beryljct,423,14FEB2018:12:30:00,44.8,13.48,42.3,42.5,42.8,43.1,42.5,82,83,80,0.767,37.6,38.4,37.0,11.27,10.5,180,22,13.2,0.00087,0.00113,39.2,39.6,21,155,0,47.5,12.09,0.00,0.00
15min,AgWx,beryljct,423,14FEB2018:12:45:00,44.7,13.52,42.9,42.9,42.7,43.2,42.2,82,83,78,0.735,37.6,38.4,36.5,12.82,10.4,176,21,14.1,0.00091,0.00116,39.4,39.6,21,171,0,47.1,12.09,0.00,0.00
15min,AgWx,beryljct,423,14FEB2018:13:00:00,44.9,13.74,43.2,43.3,43.1,43.3,42.8,79,81,77,0.768,36.9,37.7,36.2,8,10.6,170,20,13.5,0.00114,0.00145,39.7,39.7,21,227,0,49.6,12.08,0.00,0.00
15min,AgWx,beryljct,423,14FEB2018:13:15:00,45.6,13.97,44.4,44.6,43.9,44.8,43.0,77,81,73,0.739,37.1,38.4,36.5,10.19,10.5,174,20,13.6,0.00138,0.00173,39.8,39.7,21,298,0,52.0,12.09,0.00,0.00
15min,AgWx,beryljct,423,14FEB2018:13:30:00,46.8,14.15,44.5,44.7,44.7,45.2,44.1,74,77,72,0.736,36.8,38.2,35.7,12.43,11.4,175,21,15.1,0.00155,0.00196,40.0,39.7,21,331,0,53.3,12.09,0.00,0.00
15min,AgWx,beryljct,423,14FEB2018:13:45:00,47.9,14.55,45.4,45.8,45.4,46.4,44.6,71,75,68,0.726,36.7,38.4,35.9,15.08,13.2,169,25,16.3,0.00184,0.00235,40.2,39.7,21,423,0,54.3,12.09,0.00,0.00
15min,AgWx,beryljct,423,14FEB2018:14:00:00,48.7,14.28,45.7,45.8,45.6,46.7,44.8,69,72,67,0.710,36.1,38.0,35.3,12.28,13.6,176,23,18.0,0.00170,0.00224,40.5,39.7,21,355,0,53.0,12.09,0.00,0.00
15min,AgWx,beryljct,423,14FEB2018:14:15:00,49.1,14.57,45.0,45.4,45.7,46.1,45.0,68,70,66,0.695,35.8,36.8,34.8,15.59,13.5,175,25,20.2,0.00155,0.00210,40.9,39.8,21,300,0,52.3,12.08,0.00,0.00
15min,AgWx,beryljct,423,14FEB2018:14:30:00,50.5,14.51,47.4,48.1,47.4,49.3,45.4,66,69,61,0.725,36.5,38.7,35.5,15.08,16.0,175,24,21.8,0.00290,0.00363,41.1,39.8,21,706,0,57.0,12.09,0.00,0.00
15min,AgWx,beryljct,423,14FEB2018:14:45:00,50.8,14.54,44.4,44.8,45.6,47.9,44.1,69,76,62,0.752,36.0,37.9,34.8,13.72,16.1,178,25,22.4,0.00150,0.00207,41.4,39.9,21,291,0,51.5,12.08,0.00,0.00
15min,AgWx,beryljct,423,14FEB2018:15:00:00,50.2,14.53,44.6,44.8,44.7,46.1,44.2,72,74,69,0.726,36.3,38.1,35.6,11.25,14.3,179,24,18.1,0.00150,0.00198,41.6,39.9,21,359,0,51.2,12.08,0.00,0.00
15min,AgWx,beryljct,423,14FEB2018:15:15:00,50.2,14.53,44.2,44.4,45.4,46.5,44.4,71,74,67,0.714,36.6,37.7,35.0,8.55,11.1,177,22,15.3,0.00165,0.00211,42.1,39.9,21,400,0,53.2,12.08,0.00,0.00
15min,AgWx,beryljct,423,14FEB2018:15:30:00,50.2,14.53,45.0,45.4,45.0,45.6,44.6,70,73,67,0.706,35.9,37.0,34.9,12.1,10.2,179,28,16.2,0.00136,0.00179,42.4,40.0,21,323,0,52.3,12.08,0.00,0.00
15min,AgWx,beryljct,423,14FEB2018:15:45:00,50.1,14.52,45.5,45.9,45.5,46.4,44.9,69,70,66,0.694,35.8,36.7,35.2,18.11,14.1,184,25,22.2,0.00128,0.00182,42.6,40.0,21,278,0,50.8,12.08,0.00,0.00
15min,AgWx,beryljct,423,14FEB2018:16:00:00,49.7,13.86,45.2,45.5,45.5,45.8,45.2,67,68,65,0.696,35.1,35.7,34.2,11.95,14.5,173,24,21.6,0.00101,0.00157,42.8,40.1,21,157,0,49.0,12.08,0.00,0.00
15min,AgWx,beryljct,423,14FEB2018:16:15:00,48.7,13.54,41.6,41.8,43.7,45.8,41.8,73,82,67,0.739,35.5,37.0,33.6,12.71,16.3,188,28,24.4,0.00076,0.00122,42.9,40.2,21,99,0,45.5,12.08,0.00,0.00
15min,AgWx,beryljct,423,14FEB2018:16:30:00,46.6,13.33,40.5,40.9,41.3,42.0,40.8,83,84,82,0.721,36.6,37.2,36.0,10.28,13.2,190,27,17.0,0.00037,0.00061,43.1,40.2,21,59,12,40.9,12.09,0.01,0.00
15min,AgWx,beryljct,423,14FEB2018:16:45:00,45.0,14.07,41.7,41.9,41.1,42.2,40.6,83,83,81,0.736,36.3,37.5,35.8,10.06,10.8,175,23,15.4,0.00032,0.00053,43.1,32.0,0,112,0,41.3,12.09,0.00,0.00
15min,AgWx,beryljct,423,14FEB2018:17:00:00,44.0,14.22,41.9,42.2,41.6,42.3,41.2,82,83,81,0.737,36.6,37.3,35.8,10.59,11.1,170,19,15.7,0.00042,0.00065,42.9,40.4,21,134,0,43.8,12.09,0.00,0.00
15min,AgWx,beryljct,423,14FEB2018:17:15:00,43.6,14.21,42.2,42.7,42.5,42.9,41.8,80,83,76,0.719,36.8,38.0,35.5,11.93,12.9,163,18,17.7,0.00026,0.00029,42.8,32.0,0,182,0,44.0,12.09,0.00,0.00
15min,AgWx,beryljct,423,14FEB2018:17:30:00,43.4,14.21,41.5,41.9,42.4,42.8,41.8,78,79,76,0.707,35.9,36.6,35.3,15.19,14.2,159,23,18.0,0.00025,0.00028,42.7,40.6,21,145,0,43.0,12.09,0.00,0.01
15min,AgWx,beryljct,423,14FEB2018:17:45:00,43.3,13.56,41.6,42.1,41.9,42.5,41.4,76,79,72,0.692,35.0,35.8,33.9,13.59,15.9,162,21,20.6,0.00022,0.00025,42.7,40.6,21,95,0,42.1,12.09,0.00,0.00
15min,AgWx,beryljct,423,14FEB2018:18:00:00,43.0,13.33,40.7,40.9,41.5,42.0,40.8,77,78,76,0.680,34.9,35.3,34.3,12.3,13.6,164,23,17.4,0.00015,0.00017,42.5,40.7,21,29,0,40.8,12.09,0.00,0.00
15min,AgWx,beryljct,423,14FEB2018:18:15:00,42.3,13.14,39.6,39.6,40.2,41.2,39.6,82,83,78,0.689,35.1,35.4,34.7,12.36,12.6,163,23,16.6,0.00008,0.00010,42.4,40.8,21,7,0,39.1,12.09,0.00,0.00
15min,AgWx,beryljct,423,14FEB2018:18:30:00,41.4,13.07,39.4,39.6,39.8,40.0,39.6,83,83,83,0.686,35.1,35.4,34.9,12.63,13.2,163,22,17.0,0.00007,0.00008,42.2,40.8,21,2,0,38.5,12.09,0.00,0.00
15min,AgWx,beryljct,423,14FEB2018:18:45:00,40.7,13.04,39.3,39.6,39.6,40.0,39.4,83,84,83,0.688,35.0,35.4,34.8,9.89,12.2,159,21,16.2,0.00006,0.00007,41.9,40.9,21,0,0,38.4,12.09,0.00,0.00
15min,AgWx,beryljct,423,14FEB2018:19:00:00,40.1,13.01,38.9,39.1,39.5,40.6,39.0,83,84,81,0.673,34.8,35.7,34.3,7.563,11.2,159,22,16.4,0.00005,0.00007,41.6,40.9,21,0,0,38.2,12.09,0.00,0.00
15min,AgWx,beryljct,423,14FEB2018:19:15:00,39.4,13,38.2,38.4,38.3,39.1,37.6,83,83,82,0.653,33.6,34.4,32.9,6.577,6.5,176,21,10.0,-0.00000,0.00001,41.5,41.0,21,0,0,36.7,12.09,0.00,0.00
15min,AgWx,beryljct,423,14FEB2018:19:30:00,38.5,12.98,37.2,37.3,38.0,38.4,37.3,83,84,83,0.630,33.4,33.7,32.8,6.599,6.3,175,15,7.3,-0.00001,-0.00000,41.1,41.0,21,0,0,36.2,12.09,0.00,0.00
15min,AgWx,beryljct,423,14FEB2018:19:45:00,37.8,12.97,37.4,37.6,37.4,37.8,37.0,84,84,83,0.639,32.8,33.2,32.5,6.467,6.7,169,21,8.3,-0.00001,0.00000,41.0,32.0,0,0,0,35.8,12.09,0.00,0.00
15min,AgWx,beryljct,423,14FEB2018:20:00:00,37.2,12.95,35.7,36.0,36.5,37.5,35.9,83,84,83,0.597,32.0,33.0,31.4,7.278,7.8,168,12,10.5,0.00001,0.00002,40.7,41.1,21,0,0,35.5,12.09,0.00,0.00
15min,AgWx,beryljct,423,14FEB2018:20:15:00,36.5,12.94,35.0,35.0,35.4,36.0,34.9,83,83,83,0.573,30.8,31.5,30.2,6.16,6.4,168,17,8.0,-0.00001,0.00000,40.5,41.1,21,0,0,35.7,12.09,0.00,0.00
15min,AgWx,beryljct,423,14FEB2018:20:30:00,36.0,12.94,35.6,35.6,35.1,35.6,34.3,83,83,82,0.582,30.4,30.8,29.7,8.37,8.2,159,19,11.8,0.00002,0.00003,40.2,41.1,21,0,0,35.7,12.09,0.00,0.00
15min,AgWx,beryljct,423,14FEB2018:20:45:00,35.6,12.92,34.3,34.4,35.1,35.7,34.2,82,83,82,0.556,30.3,30.9,29.5,2.214,4.6,199,35,8.8,-0.00004,-0.00003,39.9,41.2,21,0,0,35.5,12.09,0.00,0.00
15min,AgWx,beryljct,423,14FEB2018:21:00:00,34.9,12.91,33.2,33.5,34.7,35.2,33.5,82,83,82,0.538,29.9,30.3,28.8,6.05,2.9,200,53,6.1,-0.00008,-0.00010,39.7,41.2,21,0,0,35.4,12.09,0.00,0.00
15min,AgWx,beryljct,423,14FEB2018:21:15:00,34.3,12.9,35.4,35.2,34.2,35.7,33.0,82,83,82,0.573,29.4,30.8,28.3,4.319,3.4,11,86,7.3,-0.00007,-0.00007,39.4,41.1,21,0,0,35.7,12.09,0.00,0.00
15min,AgWx,beryljct,423,14FEB2018:21:30:00,34.0,12.9,35.1,35.2,34.9,35.6,34.0,83,83,82,0.575,30.3,30.8,29.4,6.445,6.0,165,17,8.3,-0.00001,-0.00001,39.2,41.1,21,0,0,35.6,12.09,0.00,0.00
15min,AgWx,beryljct,423,14FEB2018:21:45:00,33.9,12.89,34.0,34.3,34.9,35.7,34.1,83,84,83,0.560,30.3,31.2,29.6,7.98,6.7,167,17,8.6,-0.00000,0.00001,38.9,32.0,0,0,0,35.7,12.09,0.00,0.00
15min,AgWx,beryljct,423,14FEB2018:22:00:00,33.7,12.88,34.1,34.2,34.5,35.0,33.9,83,84,83,0.553,29.9,30.4,29.4,5.13,7.2,166,16,8.5,0.00000,0.00001,38.8,32.0,0,0,0,35.7,12.09,0.00,0.00
15min,AgWx,beryljct,423,14FEB2018:22:15:00,33.9,12.89,37.3,37.3,36.1,37.4,34.0,83,83,83,0.629,31.4,32.9,29.4,8.33,7.1,166,22,9.0,0.00000,0.00001,38.5,41.1,21,0,0,36.1,12.09,0.00,0.00
15min,AgWx,beryljct,423,14FEB2018:22:30:00,34.4,12.89,36.4,36.5,36.7,37.6,35.9,83,84,83,0.609,32.2,33.0,31.4,4.231,7.5,164,23,10.0,0.00001,0.00002,38.3,41.1,21,0,0,37.0,12.09,0.00,0.00
15min,AgWx,beryljct,423,14FEB2018:22:45:00,34.9,12.87,38.4,38.2,36.9,38.2,36.4,83,83,83,0.653,32.3,33.7,31.8,7.607,5.1,182,23,7.6,-0.00003,-0.00003,38.2,41.0,21,0,0,37.6,12.09,0.00,0.00
15min,AgWx,beryljct,423,14FEB2018:23:00:00,35.9,12.88,39.1,39.4,39.2,39.6,38.4,83,84,82,0.684,34.6,34.8,33.8,7.41,6.5,209,26,8.6,-0.00001,0.00000,38.1,41.0,21,0,31,39.3,12.09,0.00,0.00
15min,AgWx,beryljct,423,14FEB2018:23:15:00,36.6,12.87,37.4,37.7,38.6,39.3,37.5,83,84,83,0.633,33.9,34.7,32.7,8.13,7.8,169,19,10.4,0.00001,0.00003,37.9,40.9,21,0,74,38.1,12.12,0.02,0.01
15min,AgWx,beryljct,423,14FEB2018:23:30:00,36.8,12.86,37.0,37.0,37.5,37.8,37.0,83,83,82,0.615,32.7,33.2,32.2,7.892,10.9,161,20,15.0,0.00005,0.00006,37.9,40.9,21,0,47,37.1,12.13,0.01,0.03
15min,AgWx,beryljct,423,14FEB2018:23:45:00,36.6,12.85,36.5,36.4,36.7,37.1,36.4,83,83,82,0.600,31.9,32.3,31.5,7.168,7.7,172,19,9.4,0.00001,0.00003,37.8,40.9,21,0,0,35.7,12.13,0.00,0.00
15min,AgWx,bigpiney,439,14FEB2018:00:00:00,10.9,12.81,7.3,6.3,5.6,6.4,5.1,80,81,80,0.163,0.9,1.5,0.2,5.853,5.0,227,5.9,7.3,-0.00001,-0.00001,30.3,31.5,12,0,0,0.0,.,0.00,0.00
15min,AgWx,bigpiney,439,14FEB2018:00:15:00,10.2,12.8,4.8,6.4,6.8,10.3,5.0,79,86,75,0.155,1.6,7.1,-0.4,4.845,4.8,225,7.9,7.7,-0.00002,-0.00001,30.3,31.4,12,0,0,0.0,.,0.00,0.00
15min,AgWx,bigpiney,439,14FEB2018:00:30:00,9.8,12.79,10.5,10.0,9.5,12.5,6.1,77,81,71,0.192,3.8,7.3,0.2,4.384,2.9,300,54,7.9,-0.00004,-0.00005,30.3,31.4,12,0,0,0.0,.,0.00,0.00
15min,AgWx,bigpiney,439,14FEB2018:00:45:00,9.5,12.78,6.6,5.9,7.4,10.1,5.2,81,84,75,0.167,2.7,5.1,0.3,0,1.8,329,66,4.9,-0.00006,-0.00008,30.2,31.4,12,0,0,0.0,.,0.00,0.00
15min,AgWx,bigpiney,439,14FEB2018:01:00:00,9.2,12.76,5.9,5.5,6.5,7.6,4.9,84,86,82,0.166,2.8,4.3,0.7,2.696,2.1,321,24,4.6,-0.00006,-0.00007,30.2,31.5,12,0,0,0.0,.,0.00,0.00
15min,AgWx,bigpiney,439,14FEB2018:01:15:00,8.7,12.75,7.3,6.3,6.4,7.2,5.6,85,87,82,0.172,2.9,3.8,1.4,1.271,1.3,282,34,3.4,-0.00008,-0.00010,30.1,31.4,12,0,0,0.0,.,0.00,0.00
15min,AgWx,bigpiney,439,14FEB2018:01:30:00,8.3,12.75,5.7,6.0,7.0,7.7,6.0,84,86,79,0.158,3.1,4.0,0.8,3.749,2.5,217,11,4.3,-0.00005,-0.00006,30.1,31.4,12,0,0,0.0,.,0.00,0.00
15min,AgWx,bigpiney,439,14FEB2018:01:45:00,7.9,12.73,1.7,3.1,4.5,6.2,3.1,81,83,79,0.140,-0.1,2.0,-1.7,2.236,3.3,216,10,4.8,-0.00003,-0.00003,30.0,31.4,12,0,0,0.0,.,0.00,0.00
15min,AgWx,bigpiney,439,14FEB2018:02:00:00,7.2,12.73,2.9,2.6,2.4,3.1,1.1,81,82,79,0.135,-2.1,-1.2,-4.0,6.094,4.4,182,18,6.6,-0.00002,-0.00002,30.0,31.4,12,0,0,0.0,.,0.00,0.00
15min,AgWx,bigpiney,439,14FEB2018:02:15:00,6.7,12.71,6.7,6.0,3.9,6.0,2.4,79,82,77,0.158,-1.2,1.2,-2.8,4.384,5.0,211,6.0,7.0,-0.00001,-0.00001,30.0,31.4,12,0,0,0.0,.,0.00,0.00
15min,AgWx,bigpiney,439,14FEB2018:02:30:00,6.4,12.71,7.3,8.2,6.6,9.2,4.4,77,80,74,0.164,1.0,3.3,-1.6,2.236,2.6,212,14,5.4,-0.00004,-0.00005,29.9,31.4,12,0,0,0.0,.,0.00,0.00
15min,AgWx,bigpiney,439,14FEB2018:02:45:00,6.4,12.69,5.1,5.1,6.4,8.1,4.2,77,81,73,0.154,0.6,2.1,-2.2,2.411,2.3,251,31,3.9,-0.00005,-0.00005,29.8,31.3,12,0,0,0.0,.,0.00,0.00
15min,AgWx,bigpiney,439,14FEB2018:03:00:00,6.2,12.68,8.1,6.8,5.9,7.2,4.6,82,84,79,0.171,1.5,3.3,-0.3,3.069,2.5,259,12,3.5,-0.00005,-0.00006,29.8,31.4,12,0,0,0.0,.,0.00,0.00
15min,AgWx,bigpiney,439,14FEB2018:03:15:00,6.0,12.67,8.3,8.0,7.7,8.6,6.7,81,83,79,0.175,3.0,4.2,2.1,5.656,3.4,277,7.6,5.7,-0.00004,-0.00004,29.7,31.4,12,0,0,0.0,.,0.00,0.00
15min,AgWx,bigpiney,439,14FEB2018:03:30:00,6.0,12.66,3.7,4.8,6.6,8.0,4.8,81,84,77,0.149,2.0,3.8,-0.4,4.165,2.9,265,19,5.4,-0.00004,-0.00005,29.7,31.4,12,0,0,0.0,.,0.00,0.00
15min,AgWx,bigpiney,439,14FEB2018:03:45:00,5.8,12.65,2.9,2.0,3.9,5.4,2.0,81,83,78,0.134,-0.7,1.3,-2.7,4.713,5.1,210,9.1,6.2,-0.00001,-0.00001,29.6,31.4,12,0,0,0.0,.,0.00,0.00
15min,AgWx,bigpiney,439,14FEB2018:04:00:00,5.5,12.63,7.6,5.9,3.4,6.8,2.0,82,87,78,0.168,-0.8,3.8,-2.5,3.902,5.0,202,11,6.6,-0.00002,-0.00002,29.6,31.3,12,0,0,0.0,.,0.00,0.00
15min,AgWx,bigpiney,439,14FEB2018:04:15:00,5.3,12.62,7.6,6.9,5.2,6.9,2.4,81,85,78,0.168,0.7,2.9,-3.0,1.929,3.1,181,47,5.8,-0.00004,-0.00004,29.5,31.3,12,0,0,0.0,.,0.00,0.00
15min,AgWx,bigpiney,439,14FEB2018:04:30:00,5.4,12.62,5.2,3.9,5.5,7.2,3.4,79,82,77,0.148,0.5,2.4,-1.5,1.6,1.5,95,61,5.1,-0.00007,-0.00008,29.5,31.4,12,0,0,0.0,.,0.00,0.00
15min,AgWx,bigpiney,439,14FEB2018:04:45:00,5.4,12.61,4.2,3.5,4.2,5.5,3.1,81,82,77,0.146,-0.3,1.1,-2.4,0,1.0,105,8.1,3.8,-0.00008,-0.00010,29.4,31.2,12,0,0,0.0,.,0.00,0.00
15min,AgWx,bigpiney,439,14FEB2018:05:00:00,5.4,12.61,2.2,2.3,3.2,3.7,2.3,83,84,82,0.140,-0.8,-0.2,-1.6,2.784,2.1,349,11,5.5,-0.00005,-0.00006,29.4,31.2,12,0,0,0.0,.,0.00,0.00
15min,AgWx,bigpiney,439,14FEB2018:05:15:00,5.1,12.59,3.4,2.8,2.5,2.9,2.1,85,85,83,0.147,-1.1,-0.6,-1.9,1.82,1.3,312,20,2.8,-0.00007,-0.00009,29.3,31.2,12,0,0,0.0,.,0.00,0.00
15min,AgWx,bigpiney,439,14FEB2018:05:30:00,4.9,12.59,3.0,2.3,3.2,3.9,2.2,85,86,83,0.141,-0.1,0.7,-1.9,1.578,2.0,298,13,4.3,-0.00006,-0.00007,29.3,31.3,12,0,0,0.0,.,0.00,0.00
15min,AgWx,bigpiney,439,14FEB2018:05:45:00,4.7,12.58,5.6,4.2,3.0,4.5,1.2,85,88,83,0.157,-0.4,1.6,-2.8,0.745,2.3,282,21,5.2,-0.00005,-0.00006,29.2,31.1,12,0,0,0.0,.,0.00,0.00
15min,AgWx,bigpiney,439,14FEB2018:06:00:00,4.6,12.57,7.2,6.0,4.5,6.0,2.0,86,88,81,0.173,1.1,2.8,-2.5,3.771,2.1,236,16,3.9,-0.00006,-0.00007,29.2,31.2,12,0,0,0.0,.,0.00,0.00
15min,AgWx,bigpiney,439,14FEB2018:06:15:00,4.5,12.57,7.4,6.0,5.3,6.4,3.3,85,87,79,0.174,1.6,3.2,-1.7,0,1.8,228,41,3.5,-0.00006,-0.00008,29.1,31.1,12,0,0,0.0,.,0.00,0.00
15min,AgWx,bigpiney,439,14FEB2018:06:30:00,4.5,12.56,4.4,4.2,5.0,6.2,4.0,85,88,83,0.153,1.5,3.2,0.1,1.995,1.8,235,22,3.3,-0.00006,-0.00008,29.1,31.1,12,0,0,0.0,.,0.00,0.00
15min,AgWx,bigpiney,439,14FEB2018:06:45:00,4.3,12.55,5.8,5.3,4.6,5.3,3.2,85,86,81,0.165,1.1,2.0,-1.2,0,1.0,212,32,2.7,-0.00008,-0.00011,29.0,31.2,12,0,0,0.0,.,0.00,0.00
15min,AgWx,bigpiney,439,14FEB2018:07:00:00,4.2,12.55,5.3,4.5,4.7,5.3,3.9,85,85,84,0.159,1.1,1.9,0.1,1.578,1.0,348,37,2.7,-0.00008,-0.00011,29.0,31.1,12,0,0,0.0,.,0.00,0.00
15min,AgWx,bigpiney,439,14FEB2018:07:15:00,4.3,12.56,5.4,4.8,4.6,5.2,4.0,85,86,84,0.159,1.0,1.7,0.3,0,0.7,344,16,2.3,-0.00009,-0.00012,28.9,31.1,12,2,0,0.0,.,0.00,0.00
15min,AgWx,bigpiney,439,14FEB2018:07:30:00,4.6,12.86,6.6,5.8,5.2,5.8,4.8,84,85,84,0.167,1.5,2.0,1.0,0,0.3,178,15,1.5,-0.00009,-0.00013,28.9,31.1,12,16,0,0.0,.,0.00,0.00
15min,AgWx,bigpiney,439,14FEB2018:07:45:00,5.2,14.99,6.1,5.6,5.8,6.2,5.5,83,84,82,0.162,1.7,2.3,1.3,3.705,2.1,166,11,4.5,-0.00008,-0.00006,28.9,31.1,12,43,0,0.0,.,0.00,0.00
15min,AgWx,bigpiney,439,14FEB2018:08:00:00,6.0,15.03,6.1,5.8,5.7,6.0,5.5,82,83,82,0.163,1.5,2.0,1.3,3.836,3.4,144,8.7,5.2,0.00004,0.00007,28.8,31.1,12,94,0,0.0,.,0.00,0.00
15min,AgWx,bigpiney,439,14FEB2018:08:15:00,7.1,14.98,7.2,6.9,6.0,6.9,5.5,83,84,82,0.173,1.9,2.9,1.3,2.587,3.3,161,17,5.0,0.00011,0.00014,28.8,31.1,12,129,0,0.0,.,0.00,0.00